This is the latest recevied weather packets stored in our database for station/object N5TDX. If no packets are shown the sender has not sent any weather packets the latest 10 day(s).
| Time | Temp. | Humidity | Pressure | Rain* | Wind** | Luminosity | Snow |
|---|---|---|---|---|---|---|---|
| 1777910180 | 23.33° C | 57% | 1009.3 hPa | 0 mm | - | - | - |
| 1777909878 | 23.89° C | 56% | 1009.5 hPa | 0 mm | - | - | - |
| 1777909574 | 23.33° C | 57% | 1009.6 hPa | 0 mm | - | - | - |
| 1777909271 | 23.33° C | 57% | 1009.3 hPa | 0 mm | - | - | - |
| 1777908970 | 22.78° C | 57% | 1009.5 hPa | 0 mm | - | - | - |
| 1777908668 | 22.78° C | 57% | 1009.6 hPa | 0 mm | - | - | - |
| 1777908364 | 22.78° C | 57% | 1009.7 hPa | 0 mm | - | - | - |
| 1777908061 | 22.22° C | 59% | 1009.7 hPa | 0 mm | - | - | - |
| 1777907756 | 21.67° C | 60% | 1009.7 hPa | 0 mm | - | - | - |
| 1777907451 | 22.22° C | 59% | 1009.7 hPa | 0 mm | - | - | - |
| 1777907148 | 22.22° C | 60% | 1009.6 hPa | 0 mm | - | - | - |
| 1777906846 | 21.67° C | 61% | 1009.6 hPa | 0 mm | - | - | - |
| 1777906543 | 21.11° C | 63% | 1009.8 hPa | 0 mm | - | - | - |
| 1777906238 | 21.11° C | 62% | 1009.6 hPa | 0 mm | - | - | - |
| 1777905935 | 21.11° C | 63% | 1009.8 hPa | 0 mm | - | - | - |
| 1777905632 | 21.11° C | 64% | 1009.7 hPa | 0 mm | - | - | - |
| 1777905329 | 21.11° C | 64% | 1009.7 hPa | 0 mm | - | - | - |
| 1777905027 | 20.56° C | 64% | 1009.7 hPa | 0 mm | - | - | - |
| 1777904724 | 20.56° C | 65% | 1009.8 hPa | 0 mm | - | - | - |
| 1777904421 | 20.56° C | 65% | 1009.7 hPa | 0 mm | - | - | - |
| 1777904117 | 20° C | 65% | 1009.6 hPa | 0 mm | - | - | - |
| 1777903814 | 20° C | 67% | 1009.7 hPa | 0 mm | - | - | - |
| 1777903511 | 19.44° C | 68% | 1009.8 hPa | 0 mm | - | - | - |
| 1777903207 | 19.44° C | 68% | 1009.7 hPa | 0 mm | - | - | - |
| 1777902903 | 19.44° C | 69% | 1009.7 hPa | 0 mm | - | - | - |
* Rain latest hour (hover to see other rain measurements)
** Current wind speed in m/s (hover to see current wind gust speed)